Miscellaneous Local Product
Issued by NWS Hastings, NE

Home | Current Version | Previous Version | Graphics & Text | Print | Product List | Glossary On
Versions: 1 2 3 4 5 6 7 8 9 10 11 12 13 14 15 16 17 18 19 20 21 22 23 24 25 26 27 28 29 30 31 32 33 34 35 36 37 38 39 40 41 42 43 44 45 46 47 48 49 50
000
AXUS43 KGID 070202
MISGRI

GID CWA HOURLY WEATHER ROUNDUP
NATIONAL WEATHER SERVICE HASTINGS NE
900 PM CDT MON JUL 06 2015

NOTE: "FAIR" INDICATES FEW OR NO CLOUDS BELOW 12,000 FEET WITH NO
SIGNIFICANT WEATHER AND/OR OBSTRUCTIONS TO VISIBILITY.

...SOUTH CENTRAL NEBRASKA...

CITY           SKY/WX    TMP DP  RH WIND       PRES   REMARKS
GRAND ISLAND   MOCLDY    69  57  65 N13       30.09R HAZE
HASTINGS       CLOUDY    69  59  70 N9        30.07R HAZE
KEARNEY        PTCLDY    66  55  68 N8        30.10R
ORD            PTCLDY    68  52  56 N10       30.10R
YORK           MOCLDY    72  63  73 NE10      30.05R HAZE
AURORA         CLOUDY    69  60  72 N10       30.06S HAZE
LEXINGTON      CLEAR     69  54  58 N7        30.13R
HOLDREGE       CLEAR     69  55  60 N13       30.09R HAZE
HEBRON         CLOUDY    72  61  68 NE9G18    30.02R HAZE

...NEBRASKA PANHANDLE...

CITY           SKY/WX    TMP DP  RH WIND       PRES   REMARKS
CHADRON        CLOUDY    67  56  67 NE5       30.18S
ALLIANCE       CLOUDY    66  55  67 N6        30.20R
SCOTTSBLUFF    CLOUDY    66  57  72 N3        30.21S HAZE
SIDNEY         CLOUDY    65  52  62 NE8       30.23R HAZE

...WESTERN AND NORTH CENTRAL NEBRASKA...

CITY           SKY/WX    TMP DP  RH WIND       PRES   REMARKS
VALENTINE      CLEAR     68  53  58 N7        30.15R
AINSWORTH      CLEAR     66  55  68 N6        30.15R
ONEILL         CLEAR     68  55  63 N10       30.12R
BROKEN BOW     PTCLDY    70  53  54 N10       30.13R
IMPERIAL       CLOUDY    70  51  51 NE14      30.17R
NORTH PLATTE   PTCLDY    68  53  58 N8        30.15R
MCCOOK         CLEAR     69  54  58 N9        30.13R HAZE

...EASTERN NEBRASKA...

CITY           SKY/WX    TMP DP  RH WIND       PRES   REMARKS
NORFOLK        PTCLDY    69  58  67 N10       30.07R HAZE
SO SIOUX CITY  MOCLDY    70  56  61 N12       30.04R HAZE
TEKAMAH        CLOUDY    72  59  63 N14       30.01R HAZE
ALBION         CLEAR     68  55  64 N8        30.09R HAZE
OMAHA EPPLEY   CLOUDY    70  62  76 N8        29.99R HAZE
MILLARD        CLOUDY    73  63  72 N3        30.00R HAZE
LINCOLN        CLOUDY    70  63  78 N10       30.02R HAZE
NEBRASKA CITY  CLOUDY    71  60  67 N16       29.97R HAZE
BEATRICE       CLOUDY    71  63  77 N14       30.00R
FALLS CITY     CLOUDY    69  65  86 NE10      29.94R

...NORTHERN KANSAS...

CITY           SKY/WX    TMP DP  RH WIND       PRES   REMARKS
GOODLAND       CLOUDY    67  53  61 NE10      30.17R HAZE
HILL CITY      CLOUDY    73  51  46 NE15G22   30.08R HAZE
NORTON         CLEAR     70  48  46 N8        30.10R HAZE
PHILLIPSBURG     N/A     75  54  46 N5G17     30.07R HAZE
SMITH CENTER   CLEAR     72  57  60 N10G18    30.05R HAZE
HAYS           CLOUDY    75  55  50 NE17G25   30.05R
RUSSELL        LGT RAIN  73  63  70 NE17      30.02R
CONCORDIA      CLOUDY    72  64  76 N17       30.00R
SALINA         CLOUDY    72  68  87 N16       29.97R FOG
TOPEKA         LGT RAIN  72  72 100 NW5       29.90S



USA.gov is the U.S. government's official web portal to all federal, state and local government web resources and services.